SL-8 R/B

Satellite information

Favourite Embed

Satellite Type and Status

ROCKET BODYIN ORBIT

Key statistics

Satellite SL-8 R/B at a glance.

Uptime

15518

Days in orbit

Revolutions

≈ 13.8

Per day

Orbit

LEO

Low Earth Orbit

Inclination

82.9

Latest

Satellite identification and parameters

Extended collection of information and parameters for SL-8 R/B.

Object identification

Identified? True

Debris? False

Object name: SL-8 R/B

International designator: 1983-001B

Object number (NORAD): 13758

Object ID (CCSDS): 13758

Country: COMMONWEALTH OF INDEPENDENT STATES (CIS)

Current information (Y/N): Y

RCS size: LARGE

Orbital parameters

Period: 104.415 minutes

Inclination: 82.9106 deg

SMA: 7345.179 km

Apoapsis: 987.118 km

Periapsis: 946.969 km

RAAN: 264.295 deg

Eccentricy: 0.002733

Argument of periapsis: 7.6907 deg

Mean anomaly: 352.4665 deg

Mean motion: 13.79110931 rev/day

Mean motion (dot): 0.0000007 rev/day2

B* drag term: 0.000053416 1/REarth

Two-line elements (TLE)

Creation date: July 8, 2025, 2:27 a.m.

Reference frame: TEME

Reference center: EARTH

Epoch: July 7, 2025, 9:52 p.m. UTC

TLE line 0: 0 SL-8 R/B

TLE line 1: 1 13758U 83001B 25188.91112827 .00000070 00000-0 53416-4 0 9991

TLE line 2: 2 13758 82.9106 264.2950 0027330 7.6907 352.4665 13.79110931136932

Live tracking on map

Real-time ground track for satellite SL-8 R/B.

In-orbit conjunctions

A list of the most updated potential collisions computed for object SL-8 R/B.

Target Orbit TCA Probability of collision Miss distance Type
SL-24 R/B SSO 2025-04-09 10:21:10 0.0002481915 96.0 (m) ROCKET BODY
THORAD AGENA D DEB SSO 2024-06-10 13:25:17 0.0001018477 537.0 (m) DEBRIS

Associated space launch

Navigation satellite providing location information for the Tsiklon-B navigation system

SL-8 R/B was lifted into orbit during the mission ‘Kosmos-3M | Parus 36’, on board a Kosmos-3M space rocket.

The launch took place on Jan. 12, 1983, 2:02 p.m. from 132/2.

For more information about the launch, click the button.

Launch to space Kosmos-3M | Parus 36
Kosmos-3M | Parus 36

Agency: N/A

Status: Launch Successful

Launch date: Jan. 12, 1983, 2:02 p.m. UTC

Rocket: Kosmos-3M

Launch pad: 132/2

Location: Plesetsk Cosmodrome, Russian Federation

...

Latest news about this satellite

There are no fresh news available about this satellite. Check back as we update our databases every day.


Newsletter sign-up

Weekly statistics, charts and insights to help you stay on top of the space industry.